Weather reports worldwide

Advertisment
Benavente, Spain (8056): temperature & dewpoint: 09.10.2019 19:00:00 - 15.10.2019 19:00:00 (CEST)Benavente, Spain (8056): wind speed & gusts: 09.10.2019 19:00:00 - 15.10.2019 19:00:00 (CEST)Benavente, Spain (8056): wind direction: 09.10.2019 19:00:00 - 15.10.2019 19:00:00 (CEST)Benavente, Spain (8056): reduced air pressure: 09.10.2019 19:00:00 - 15.10.2019 19:00:00 (CEST)Benavente, Spain (8056): visibility: 09.10.2019 19:00:00 - 15.10.2019 19:00:00 (CEST)Benavente, Spain (8056): sunshine duration: 09.10.2019 19:00:00 - 15.10.2019 19:00:00 (CEST)Benavente, Spain (8056): precipitation: 09.10.2019 19:00:00 - 15.10.2019 19:00:00 (CEST)
Date & Time tt [°C] td [°C] ff [km/h] ff [kn] fx [km/h] fx [kn] dd ppp [hPa] vv [km] sd [min] rr [mm]
15.10.2019 19:00:00 12,6 6,2 6 3 23 13 W 1019,5 20 0 0,0
15.10.2019 18:00:00 12,6 5,9 8 4 28 15 SW 1019,5 20 0 0,0
15.10.2019 17:00:00 12,7 6,1 13 7 33 18 WSW 1019,6 10 0 0,0
15.10.2019 16:00:00 13,7 5,6 14 8 36 19 WSW 1019,1 20 1 0,0
15.10.2019 15:00:00 13,3 5,5 15 8 34 18 WSW 1019,3 20 2 0,2
15.10.2019 14:00:00 13,5 5,5 11 6 31 17 SSW 1019,4 20 30 -
15.10.2019 13:00:00 13,2 3,8 13 7 29 16 WSW 1019,8 20 54 0,0
15.10.2019 12:00:00 12,1 4,1 12 7 29 15 SSW 1020,5 20 59 0,0
15.10.2019 11:00:00 10,0 5,8 9 5 18 10 SSW 1021,4 20 60 0,0
15.10.2019 10:00:00 7,7 5,0 8 5 16 9 SW 1021,7 20 40 0,0
15.10.2019 09:00:00 5,6 3,6 6 4 14 8 WSW 1021,4 20 0 0,0
15.10.2019 08:00:00 5,2 3,6 5 3 13 7 WSW 1021,3 20 0 -
15.10.2019 07:00:00 5,5 3,6 5 3 13 7 SW 1021,2 20 0 0,0
15.10.2019 06:00:00 5,1 3,0 2 1 6 3 S 1021,1 20 0 0,0
15.10.2019 05:00:00 6,0 3,4 3 2 15 8 SW 1020,3 20 0 0,0
15.10.2019 04:00:00 5,8 3,2 6 3 15 8 SW 1020,1 20 0 0,0
15.10.2019 03:00:00 5,2 3,0 5 3 11 6 S 1020,2 20 0 0,0
15.10.2019 02:00:00 6,1 3,2 5 3 16 9 S 1019,8 20 0 -
15.10.2019 01:00:00 7,3 3,0 9 5 26 14 SW 1018,9 20 0 0,0
15.10.2019 00:00:00 7,0 3,4 10 5 22 12 SW 1018,3 20 0 0,0
14.10.2019 23:00:00 7,5 3,6 10 5 19 10 SW 1017,4 20 0 0,0
14.10.2019 22:00:00 7,8 3,8 10 5 23 12 WSW 1016,5 20 0 0,0
14.10.2019 21:00:00 8,6 3,2 5 3 28 15 W 1016,0 20 0 0,0
14.10.2019 20:00:00 9,9 5,1 14 7 29 16 W 1014,4 20 3 -
14.10.2019 19:00:00 11,3 6,1 10 5 24 13 W 1012,6 20 41 0,0
14.10.2019 18:00:00 11,0 7,3 9 5 21 11 WSW 1011,9 20 4 0,0
14.10.2019 17:00:00 9,2 5,8 11 6 49 27 WSW 1012,3 20 0 0,2
14.10.2019 16:00:00 12,0 8,3 16 8 48 26 SW 1010,5 20 0 0,0
14.10.2019 15:00:00 11,3 9,2 16 8 36 20 S 1009,9 10 0 0,0
14.10.2019 14:00:00 11,8 8,7 16 8 32 18 SSW 1010,7 20 0 -
14.10.2019 13:00:00 12,2 8,5 18 10 39 21 SW 1010,8 20 0 0,0
14.10.2019 12:00:00 12,6 7,3 18 10 46 25 SW 1010,4 20 36 0,0
14.10.2019 11:00:00 11,8 8,8 14 8 35 19 SSW 1010,4 20 32 0,0
14.10.2019 10:00:00 10,4 7,8 5 3 22 12 SW 1009,5 20 0 0,2
14.10.2019 09:00:00 10,6 8,0 8 5 45 24 W 1008,3 20 0 0,0
14.10.2019 08:00:00 13,5 9,6 9 5 22 12 SSW 1006,9 19 0 -
14.10.2019 07:00:00 11,7 7,6 2 1 5 3 S 1007,3 20 0 0,0
14.10.2019 06:00:00 11,4 7,1 1 1 5 3 NNE 1007,5 20 0 0,0
14.10.2019 05:00:00 12,7 7,4 3 2 11 6 S 1007,6 20 0 0,0
14.10.2019 04:00:00 12,3 7,1 1 1 6 3 S 1008,2 10 0 0,0
14.10.2019 03:00:00 12,9 7,3 1 1 5 3 W 1009,1 20 0 0,0
14.10.2019 02:00:00 13,6 7,4 1 1 6 4 SE 1009,6 20 0 -
14.10.2019 01:00:00 14,7 8,0 4 2 11 6 S 1010,2 20 0 0,0
14.10.2019 00:00:00 15,0 8,3 6 4 17 9 S 1010,6 20 0 0,0
13.10.2019 23:00:00 16,3 8,0 9 5 28 15 SSW 1010,7 20 0 0,0
13.10.2019 22:00:00 17,3 7,6 11 6 29 16 SSW 1010,2 20 0 0,0
13.10.2019 21:00:00 17,9 7,0 14 8 35 19 SSW 1010,6 20 0 0,0
13.10.2019 20:00:00 18,4 7,4 11 6 38 20 S 1010,3 20 0 -
13.10.2019 19:00:00 20,4 7,4 15 8 46 25 SSW 1009,5 20 52 0,0
13.10.2019 18:00:00 22,0 7,0 14 8 37 20 SSW 1009,0 20 57 0,0
13.10.2019 17:00:00 21,4 8,7 19 11 44 24 SSW 1009,7 20 30 0,0
13.10.2019 16:00:00 21,0 9,6 13 7 34 18 SSW 1010,0 20 26 0,0
13.10.2019 15:00:00 20,1 9,3 18 10 35 19 SSW 1010,8 20 0 0,0
13.10.2019 14:00:00 19,2 9,4 14 7 32 17 S 1011,9 20 1 -
13.10.2019 13:00:00 17,6 9,7 15 8 41 22 SSW 1012,9 20 1 0,0
13.10.2019 12:00:00 17,5 9,4 18 10 36 19 SSW 1012,9 20 52 0,0
13.10.2019 11:00:00 16,3 9,7 17 9 37 20 SSW 1013,1 20 47 0,0
13.10.2019 10:00:00 14,8 9,6 8 4 22 12 S 1013,4 20 34 0,0
13.10.2019 09:00:00 13,1 9,3 9 5 26 14 SSW 1013,5 20 0 0,0
13.10.2019 08:00:00 13,2 9,0 10 5 31 17 SSW 1013,1 20 0 -
13.10.2019 07:00:00 14,5 9,7 14 8 39 21 SW 1012,8 20 0 0,0
13.10.2019 06:00:00 14,7 10,5 17 9 36 20 SW 1011,9 20 0 0,0
13.10.2019 05:00:00 15,0 10,6 10 5 27 15 SSW 1011,5 20 0 0,0
13.10.2019 04:00:00 15,6 11,6 9 5 20 11 SW 1011,4 20 0 0,0
13.10.2019 03:00:00 16,1 11,4 6 3 19 10 SSW 1011,6 20 0 0,0
13.10.2019 02:00:00 17,2 11,7 9 5 18 10 SW 1011,4 20 0 -
13.10.2019 01:00:00 18,0 11,1 6 3 18 10 SSW 1011,3 20 0 0,0
13.10.2019 00:00:00 19,4 7,1 8 5 24 13 SSW 1010,6 20 0 0,0
12.10.2019 23:00:00 21,0 6,5 13 7 35 19 S 1009,7 20 0 0,0
12.10.2019 22:00:00 23,0 5,8 14 8 35 19 SSW 1008,7 20 0 0,0
12.10.2019 21:00:00 23,2 5,6 14 7 32 17 SSW 1008,6 20 0 0,0
12.10.2019 20:00:00 24,3 5,6 18 10 43 23 SSW 1008,0 20 0 -
12.10.2019 19:00:00 25,3 5,0 24 13 60 32 SSW 1007,7 20 28 0,0
12.10.2019 18:00:00 26,2 4,6 19 10 61 33 SW 1007,7 20 26 0,0
12.10.2019 17:00:00 27,4 5,0 19 11 58 32 SSW 1007,4 20 56 0,0
12.10.2019 16:00:00 27,5 4,5 21 12 55 30 SSW 1007,8 20 60 0,0
12.10.2019 15:00:00 27,0 5,3 18 10 44 24 SW 1008,7 9 60 0,0
12.10.2019 14:00:00 24,9 9,2 17 9 32 17 SSW 1010,7 13 60 -
12.10.2019 13:00:00 23,7 10,0 16 9 33 18 SSW 1011,6 16 54 0,0
12.10.2019 12:00:00 20,7 11,3 8 4 19 11 SSW 1013,2 17 55 0,0
12.10.2019 11:00:00 17,6 11,4 3 2 8 5 ENE 1014,2 1,1 41 0,0
12.10.2019 10:00:00 15,0 10,2 1 1 6 3 NW 1014,9 6 3 0,0
12.10.2019 09:00:00 14,7 9,7 0 0 9 5 N 1014,3 6 0 0,0
12.10.2019 08:00:00 16,1 9,9 5 3 16 9 SSW 1013,6 10 0 -
12.10.2019 07:00:00 15,6 9,4 5 3 12 6 SSW 1013,7 10 0 0,0
12.10.2019 06:00:00 16,1 9,3 6 3 16 9 SSW 1013,8 11 0 0,0
12.10.2019 05:00:00 16,1 9,8 5 3 12 6 SSW 1013,7 10 0 0,0
12.10.2019 04:00:00 15,6 10,2 4 2 8 4 SSW 1013,9 9 0 0,0
12.10.2019 03:00:00 14,6 9,6 1 1 5 3 N 1014,7 8 0 0,0
12.10.2019 02:00:00 14,6 9,6 1 1 5 3 NNW 1015,1 7 0 -
12.10.2019 01:00:00 15,7 9,8 2 1 6 3 SW 1015,2 7 0 0,0
12.10.2019 00:00:00 17,5 10,4 1 1 7 4 SSE 1014,9 3,1 0 0,0
11.10.2019 23:00:00 19,8 10,5 4 2 15 8 SSW 1014,0 6 0 0,0
11.10.2019 22:00:00 21,2 9,8 6 3 17 9 SW 1013,3 14 0 0,0
11.10.2019 21:00:00 22,3 9,4 7 4 18 10 SSW 1012,6 11 0 0,0
11.10.2019 20:00:00 24,0 9,2 5 3 16 9 SW 1011,9 16 0 -
11.10.2019 19:00:00 25,5 8,9 8 4 17 9 SW 1011,7 18 0 0,0
11.10.2019 18:00:00 26,0 7,6 8 4 24 13 S 1011,9 11 17 0,0
11.10.2019 17:00:00 27,7 7,0 14 7 27 14 SW 1011,8 20 60 0,0
11.10.2019 16:00:00 27,0 6,4 11 6 25 14 S - - 60 0,0
11.10.2019 15:00:00 24,6 5,9 6 4 21 12 SSW 1014,6 13 60 0,0
11.10.2019 14:00:00 22,6 5,5 4 2 14 7 S 1016,3 1,2 60 -
11.10.2019 13:00:00 19,8 5,1 3 2 11 6 S 1018,1 2,6 60 0,0
11.10.2019 12:00:00 17,0 5,0 3 2 9 5 ESE 1019,4 1,6 60 0,0
11.10.2019 11:00:00 13,6 5,0 4 2 10 6 NNW - - 60 0,0
11.10.2019 10:00:00 10,4 4,3 2 1 6 4 N 1021,5 3,1 46 0,0
11.10.2019 09:00:00 7,0 3,4 2 1 6 3 NE 1022,1 2,1 0 0,0
11.10.2019 08:00:00 7,1 3,4 0 0 16 9 N 1021,9 2,7 0 -
11.10.2019 07:00:00 7,7 3,6 1 1 11 6 N 1021,5 5 0 0,0
11.10.2019 06:00:00 8,1 3,6 5 3 12 7 N 1021,4 3,5 0 0,0
11.10.2019 05:00:00 8,6 3,9 6 4 12 7 N 1021,3 2,9 0 0,0
11.10.2019 04:00:00 9,1 4,1 4 2 12 7 N - - 0 0,0
11.10.2019 03:00:00 9,9 4,3 3 2 8 5 NNW 1021,2 2,4 0 0,0
11.10.2019 02:00:00 10,2 4,3 2 1 6 4 N 1021,2 3,7 0 -
11.10.2019 01:00:00 12,3 4,0 5 3 9 5 NNW - - 0 0,0
11.10.2019 00:00:00 11,4 2,7 3 2 6 4 N 1021,0 5 0 0,0
10.10.2019 23:00:00 12,7 3,1 3 1 6 3 N - - 0 0,0
10.10.2019 22:00:00 13,8 3,8 2 1 14 8 NE 1019,9 3,6 0 0,0
10.10.2019 21:00:00 16,0 2,5 3 2 5 3 NNW 1019,0 2,7 0 0,0
10.10.2019 20:00:00 18,7 2,9 2 1 5 3 N 1017,9 4,0 2 -
10.10.2019 19:00:00 22,7 1,1 3 2 13 7 ESE - - 60 0,0
10.10.2019 18:00:00 22,9 1,3 5 3 14 8 ESE - - 57 0,0
10.10.2019 17:00:00 22,4 2,0 5 3 18 10 E - - 60 0,0
10.10.2019 16:00:00 21,3 3,1 6 3 24 13 E - - 60 0,0
10.10.2019 15:00:00 20,4 4,0 9 5 22 12 NE - - 60 0,0
10.10.2019 14:00:00 - - - - - - - - - - -
10.10.2019 13:00:00 17,4 5,0 14 7 25 14 E - - 60 0,0
10.10.2019 12:00:00 15,5 6,2 13 7 26 14 ENE 1022,5 0,1 60 0,0
10.10.2019 11:00:00 12,4 6,2 9 5 19 10 NE 1023,7 0,2 60 0,0
10.10.2019 10:00:00 9,5 5,0 7 4 18 10 NNE 1024,4 0,2 47 0,0
10.10.2019 09:00:00 7,0 4,1 5 3 16 9 NNE 1024,6 2,4 0 0,0
10.10.2019 08:00:00 7,5 4,5 5 3 14 8 N - - 0 -
10.10.2019 07:00:00 7,5 4,8 6 3 15 8 N 1024,2 6 0 0,0
10.10.2019 06:00:00 8,3 5,5 4 2 16 9 NNE 1023,7 6 0 0,0
10.10.2019 05:00:00 9,3 6,2 8 4 16 9 N 1023,4 5 0 0,0
10.10.2019 04:00:00 9,5 6,5 6 3 13 7 N 1023,4 2,2 0 0,0
10.10.2019 03:00:00 9,4 6,1 6 3 13 7 N 1023,5 6 0 0,0
10.10.2019 02:00:00 10,1 6,1 7 4 18 10 N 1023,5 6 0 -
10.10.2019 01:00:00 11,1 5,8 8 4 19 10 NE 1023,2 0,3 0 0,0
10.10.2019 00:00:00 12,2 6,1 8 5 19 11 NE - - 0 0,0
09.10.2019 23:00:00 13,1 5,8 8 4 21 11 NE 1021,8 0,1 0 0,0
09.10.2019 22:00:00 15,2 3,7 6 4 18 10 N - - 0 0,0
09.10.2019 21:00:00 15,6 -0,7 3 2 7 4 N 1019,7 3,4 0 0,0
09.10.2019 20:00:00 17,8 0,4 3 1 8 4 NNE 1018,7 3,0 0 -
09.10.2019 19:00:00 20,9 -1,0 4 2 14 8 E - - 60 0,0

tt = temperature
td = dewpoint
ff = wind speed
fx = gusts
dd = wind direction
ppp = reduced air pressure
vv = visibility
sd = sunshine duration
rr = precipitation

Next stations